WEATHER DATA

YESTERDAY
Time Temp. Dewp. Hum. Bar. 1h Prec. 24h Prec.
00:01 8.7 7.2 90 1017.5 0.0000 0.0000
00:11 8.6 6.9 89 1017.5 0.0000 0.0000
00:21 8.6 6.7 88 1017.4 0.0000 0.0000
00:31 8.5 6.5 87 1017.5 0.0000 0.0000
00:41 8.4 6.2 86 1017.5 0.0000 0.0000
00:51 8.4 6 85 1017.5 0.0000 0.0000
01:01 8.4 5.9 84 1017.5 0.0000 0.0000
01:12 8.4 5.7 83 1017.5 0.0000 0.0000
01:22 8.3 5.8 84 1017.6 0.0000 0.0000
01:31 8.2 5.7 84 1017.5 0.0000 0.0000
01:41 8.1 5.7 85 1017.5 0.0000 0.0000
01:52 8.1 5.6 84 1017.5 0.0000 0.0000
02:02 8 5.5 84 1017.5 0.0000 0.0000
02:12 7.9 5.2 83 1017.4 0.0000 0.0000
02:22 7.8 5.3 84 1017.4 0.0000 0.0000
02:32 7.7 5.2 84 1017.5 0.0000 0.0000
02:42 7.6 5.1 84 1017.5 0.0000 0.0000
02:52 7.5 5.1 85 1017.5 0.0000 0.0000
03:03 7.4 5 85 1017.4 0.0000 0.0000
03:12 7.3 4.9 85 1017.5 0.0000 0.0000
03:22 7.3 5.1 86 1017.5 0.0000 0.0000
03:33 7.2 5 86 1017.5 0.0000 0.0000
03:43 7.2 5 86 1017.6 0.0000 0.0000
03:53 7.2 5 86 1017.6 0.0000 0.0000
04:02 7.3 5.1 86 1017.6 0.0000 0.0000
04:13 7.3 4.9 85 1017.5 0.0000 0.0000
04:23 7.2 4.9 85 1017.5 0.0000 0.0000
04:33 7.2 5 86 1017.5 0.0000 0.0000
04:43 7.2 5 86 1017.5 0.0000 0.0000
04:53 7.1 4.9 86 1017.4 0.0000 0.0000
05:03 7 4.8 86 1017.4 0.0000 0.0000
05:13 7 4.8 86 1017.4 0.0000 0.0000
05:24 7 4.8 86 1017.5 0.0000 0.0000
05:33 7 4.8 86 1017.6 0.0000 0.0000
05:43 6.9 4.7 86 1017.7 0.0000 0.0000
05:54 6.9 4.7 86 1017.7 0.0000 0.0000
06:04 6.8 4.8 87 1017.7 0.0000 0.0000
06:14 6.7 4.7 87 1017.7 0.0000 0.0000
06:23 6.6 4.6 87 1017.7 0.0000 0.0000
06:34 6.5 4.7 88 1017.7 0.0000 0.0000
06:44 6.4 4.6 88 1017.8 0.0000 0.0000
06:54 6.4 4.6 88 1017.9 0.0000 0.0000
07:04 6.5 4.7 88 1018 0.0000 0.0000
07:14 6.5 4.7 88 1018 0.0000 0.0000
07:24 6.6 4.8 88 1018.2 0.0000 0.0000
07:34 6.6 4.9 89 1018.2 0.0000 0.0000
07:45 6.6 5.1 90 1018.3 0.0000 0.0000
07:55 6.7 5.5 92 1018.3 0.0000 0.0000
08:04 6.7 5.6 93 1018.4 0.0000 0.0000
08:15 6.7 5.8 94 1018.5 0.0000 0.0000
08:25 6.8 5.9 94 1018.6 0.0000 0.0000
08:35 6.9 6 94 1018.7 0.0000 0.0000
08:45 7 6.1 94 1018.7 0.0000 0.0000
08:55 7.1 6.2 94 1018.7 0.0000 0.0000
09:05 7.2 6.3 94 1018.8 0.0000 0.0000
09:15 7.2 6.1 93 1018.8 0.0000 0.0000
09:25 7.3 6.1 92 1018.9 0.0000 0.0000
09:36 7.5 6 90 1018.9 0.0000 0.0000
09:45 7.7 6 89 1019 0.0000 0.0000
09:55 7.9 6.2 89 1019 0.0000 0.0000
10:06 7.9 5.9 87 1019.1 0.0000 0.0000
10:16 8.1 6.1 87 1019.1 0.0000 0.0000
10:25 8.1 6.1 87 1019.1 0.0000 0.0000
10:36 8.3 6.1 86 1019.2 0.0000 0.0000
10:46 8.4 6 85 1019.3 0.0000 0.0000
10:56 8.5 6 84 1019.3 0.0000 0.0000
11:06 8.6 5.9 83 1019.3 0.0000 0.0000
11:16 8.8 5.9 82 1019.2 0.0000 0.0000
11:26 9 5.9 81 1019.3 0.0000 0.0000
11:36 9 5.7 80 1019.3 0.0000 0.0000
11:46 8.9 5.5 79 1019.3 0.0000 0.0000
11:57 8.8 5.5 80 1019.3 0.0000 0.0000
12:06 8.8 5.5 80 1019.4 0.0000 0.0000
12:16 8.8 5.4 79 1019.4 0.0000 0.0000
12:27 8.8 5.2 78 1019.4 0.0000 0.0000
12:37 8.7 5.1 78 1019.5 0.0000 0.0000
12:47 8.8 5.4 79 1019.5 0.0000 0.0000
12:57 9 5.6 79 1019.6 0.0000 0.0000
13:07 9.1 5.7 79 1019.6 0.0000 0.0000
13:17 9.1 5.7 79 1019.7 0.0000 0.0000
13:27 9.1 5.8 80 1019.7 0.0000 0.0000
13:38 9.2 5.8 79 1019.7 0.0000 0.0000
13:47 9.3 6 80 1019.6 0.0000 0.0000
13:57 9.4 5.8 78 1019.7 0.0000 0.0000
14:07 9.5 5.9 78 1019.8 0.0000 0.0000
14:18 9.5 5.9 78 1019.9 0.0000 0.0000
14:28 9.6 6.1 79 1020.1 0.0000 0.0000
14:37 9.5 6 79 1019.9 0.0000 0.0000
14:48 9.5 5.9 78 1020.2 0.0000 0.0000
14:58 9.4 5.8 78 1020.1 0.0000 0.0000
15:08 9.4 5.8 78 1020.1 0.0000 0.0000
15:18 9.4 5.6 77 1020.1 0.0000 0.0000
15:28 9.4 5.6 77 1019.9 0.0000 0.0000
15:38 9.3 5.3 76 1020.1 0.0000 0.0000
15:48 9.3 5.5 77 1020.1 0.0000 0.0000
15:59 9.3 5.7 78 1020.2 0.0000 0.0000
16:08 9.3 5.7 78 1020.3 0.0000 0.0000
16:18 9.3 5.7 78 1020.3 0.0000 0.0000
16:28 9.2 5.6 78 1020.3 0.0000 0.0000
16:39 9.2 5.6 78 1020.3 0.0000 0.0000
16:49 9.1 5.7 79 1020.3 0.0000 0.0000
16:58 9.1 5.7 79 1020.3 0.0000 0.0000
17:09 9 5.6 79 1020.3 0.0000 0.0000
17:19 9 5.7 80 1020.3 0.0000 0.0000
17:29 8.9 5.6 80 1020.4 0.0000 0.0000
17:39 8.8 5.5 80 1020.5 0.0000 0.0000
17:49 8.7 5.6 81 1020.5 0.0000 0.0000
17:59 8.6 5.5 81 1020.7 0.0000 0.0000
18:09 8.5 5.6 82 1020.6 0.0000 0.0000
18:20 8.4 5.7 83 1020.6 0.0000 0.0000
18:30 8.3 5.6 83 1020.6 0.0000 0.0000
18:39 8.3 5.6 83 1020.5 0.0000 0.0000
18:49 8.2 5.3 82 1020.6 0.0000 0.0000
19:00 8.1 5 81 1020.5 0.0000 0.0000
19:10 8.1 5 81 1020.7 0.0000 0.0000
19:20 8 4.8 80 1020.8 0.0000 0.0000
19:30 8 4.9 81 1020.9 0.0000 0.0000
19:40 7.9 4.7 80 1020.9 0.0000 0.0000
19:50 7.9 4.8 81 1021 0.0000 0.0000
20:00 7.9 4.8 81 1021.2 0.0000 0.0000
20:10 7.8 4.7 81 1021.2 0.0000 0.0000
20:20 7.8 4.7 81 1021.4 0.0000 0.0000
20:30 7.8 4.7 81 1021.5 0.0000 0.0000
20:41 7.8 4.6 80 1021.5 0.0000 0.0000
20:51 7.8 4.6 80 1021.5 0.0000 0.0000
21:00 7.7 4.8 82 1021.7 0.0000 0.0000
21:10 7.6 4.7 82 1021.7 0.0000 0.0000
21:21 7.6 4.7 82 1021.7 0.0000 0.0000
21:31 7.5 4.8 83 1021.7 0.0000 0.0000
21:41 7.5 4.6 82 1021.8 0.0000 0.0000
21:51 7.5 4.6 82 1021.8 0.0000 0.0000
22:01 7.5 4.6 82 1021.7 0.0000 0.0000
22:11 7.5 4.6 82 1021.7 0.0000 0.0000
22:21 7.5 4.6 82 1021.8 0.0000 0.0000
22:32 7.4 4.5 82 1021.8 0.0000 0.0000
22:41 7.4 4.5 82 1022 0.0000 0.0000
22:51 7.4 4.5 82 1021.9 0.0000 0.0000
23:02 7.3 4.6 83 1022 0.0000 0.0000
23:12 7.3 4.6 83 1022 0.0000 0.0000
23:22 7.2 4.7 84 1022 0.0000 0.0000
23:31 7.2 4.7 84 1022 0.0000 0.0000
23:42 7.1 4.6 84 1022 0.0000 0.0000
23:52 7.1 4.8 85 1022 0.0000 0.0000

DAY STATISTIC

2021-09-17
TEMPERATURE
AVERAGE
8.0
HIGH
9.6
14:28
LOW
6.4
06:44
PRESSURE
AVERAGE
1019.4
HIGH
1022.0
22:41
LOW
1017.4
00:21
DEWPOINT
AVERAGE
5.4
HIGH
7.2
00:01
LOW
4.5
22:32
HUMIDITY
AVERAGE
84
HIGH
94
08:15
LOW
76
15:38
PRECIPITATION
RAIN HOUR
0.0
RAIN DAY
0.0
TEMPERATURE (°C)
LOW
6.4
HIGH
9.6
AVERAGE
8.0
PRESSURE (hpa)
LOW
1017.4
HIGH
1022.0
AVERAGE
1019.4
DEVICE